星链-1185 (STARLINK-1185 )

导读 | 星芒AI

STARLINK-1185 是 SpaceX Starlink 卫星互联网项目中的第 1185 颗卫星,属于低轨卫星群,旨在为全球用户提供高速互联网服务。该卫星于 2023 年发射,运行在约 550 公里的轨道高度,采用先进通信技术,支持宽带数据传输。Starlink 项目致力于改善偏远地区网络覆盖,减少数字鸿沟。STARLINK-1185 与其他卫星协同工作,提升系统整体性能与稳定性。

基本信息
目录编号:
45087
目录名称:
STARLINK-1185
国际标识:
2020-006AV
轨道中心:
EARTH
卫星名称:
星链-1185
卫星全名:
星链-1185 (STARLINK-1185 )
卫星状态:
在轨 (已飞行2100 天)
发射日期:
2020-01-29 UTC
国别 :
美国 (US)
星等 :
--
轨道信息
数据来源 国际轨道数据
星历时间: 2025-10-27T20:27:27+0800
1天前
查看轨道信息
半长轴: 6925.34km
偏心率: 0.0001373
轨道倾角: 53.054°
近地点辐角 90.423°
升交点赤经 124.442°
平近点角 269.691°
近地点: 546.254km
远地点: 548.156km
周期: 95.592分钟
每日圈数: 15.064028
详细信息
固有亮度:
5
最大亮度:
2.5
卫星平台:
Starlink V1.0
覆盖范围:
全球
运营商:
太空探索技术公司
运营商所在国:
美国
制造商(研发单位):
太空探索技术公司
制造商所在国:
美国
使用方式:
暂无
卫星简介
星链(Starlink)计划是由太空探索技术公司(SpaceX)提出的一个巨型低轨卫星互联网星座项目,计划在2019年至2024年间在太空搭建由约1.2万颗卫星组成的“星链”网络,其中1584颗将部署在地球上空550千米处的近地轨道,并从2020年开始工作。该卫星仍在工作。
2D轨道图
3D轨道图
轨道高度分析图
轨道倾角分析图
轨道综合分析图
查看轨道综合分析图